Mimbres, New Mexico
Current Conditions -  °F | °C
As of 1:35 PM on Monday 26 Jan 2015 (Local Time) from KSVC Reporting Station
Clear Clear  
Wind Chill: 57°   Ceiling: Unl
Heat Index: 57°   Visibility: 10mi
Dew Point: 18°   Wind: 7mph
Humidity: 21%   Direction: 150°SSE
Pressure: 30.3"   Gusts: NA
Location:  32.86°N, 107.98°W
Report Text: KSVC 262035Z AUTO 15006KT 10SM CLR 14/M08 A3030 RMK AO2
Loading
Personal Weather Stations






























Interactive Weather Map New forecast layout! Learn more

10-Day Weather Forecast

Advertisements
Track Severe Weather on mobile